Погода в Васкаганише

Канада     51°29′02″N   78°45′02″W
темп.,
°C
ветер,
м/с
пор.,
м/с
влажн.,
%
обл.,
%
осадки,
мм/ч
давл.,
гПа
погр.,
м
13 мая, чт
чт1323:00+5с248289 0.0 102385
02:00+3с239477 0.1 102359
05:00+2с259451 0.0 1024108
08:00+5ссз347969 0.0 1025275
11:00+9сз345565 0.0 1024592
14:00+9зсз45475 0.0 1024525
17:00+9сз45435 0.0 1023366
20:00+6ссз355785 0.0 1022134
14 мая, пт
пт1423:00+3св23665 0.0 102258
02:00+3вюв226899 0.0 102113
05:00+3юв336919 0.0 102158
08:00+9юв3552100 0.1 1020193
11:00+16ю354129 0.0 1018693
14:00+20з3436100 0.0 10171607
17:00+18ссв114795 0.3 1015305
20:00+12ссз3773100 0.5 1016172
15 мая, сб
сб1523:00+4сз3797100 1.6 1019166
02:00+1сз4796100 1.6 1020323
05:00+1сз4894100 0.1 1022374
08:00+1сз4693100 0.1 1024413
11:00+2сз458596 0.0 1025483
14:00+6сз446536 0.0 1025685
17:00+5сз446462 0.0 1024522
20:00+2сз3577100 0.0 1024222
16 мая, вс
вс1623:000с2488100 0.0 102495
02:00−1св1189100 0.0 102322
05:000с1290100 0.8 102497
08:00+2в119099 3.8 1024139
11:00+7ююв348054 0.1 1023331
14:00+16ю2354100 0.1 1020939
17:00+18з23475 0.0 1018944
20:00+17юв35585 0.0 101698
17 мая, пн
пн1723:00+13ююв513685 0.0 1015270
02:00+11ююз412697 0.0 1014264
05:00+12ююз51568100 0.0 1014484
08:00+14юз61266100 0.0 1014969
11:00+4сз81392100 3.5 1018471
14:00+2сз510826 3.7 1021573
17:00+4сз58616 0.0 1024814
20:00+2ссз410665 0.0 1026702